User: anonymous   Login
Location: Cella
(44.7333°N, 10.5667°E)
Time: 22:57:29
(UTC+00:00)
Language:

ARGOS - Orbit

View from above orbital plane
View from above orbital plane
View from above satellite
View from above satellite

Ground track
Ground track

The orbit data is extracted from the following two-line orbital elements,

1 25634U 99008A   21128.15556136 -.00000021  00000-0  96684-5 0  9994
2 25634  98.4224 157.8176 0011219  60.1684 300.0607 14.19393990150038
Epoch (UTC): 08 May 2021 03:44:00
Eccentricity: 0.0011219
inclination: 98.4224°
perigee height: 819 km
apogee height: 835 km
right ascension of ascending node: 157.8176°
argument of perigee: 60.1684°
revolutions per day: 14.19393990
mean anomaly at epoch: 300.0607°
orbit number at epoch: 15003

The dashed part of the orbit path shows where the satellite is in the earth's shadow,  

DLR